Fitchburg, MA

9:14 PM EST on December 06, 2019 (GMT -0500)
Fitchburg Municipal

Weather History for KFIT - November, 2019

Change the Weather History Date:

Saturday, November 16, 2019

  Actual Average (KORH) Record (KORH)
Temperature  
Mean Temperature 26 °F -  
Max Temperature 36 °F 45 °F 69 °F (1928)
Min Temperature 17 °F 29 °F 5 °F (1933)
Degree Days  
Heating Degree Days 38    
Moisture  
Dew Point 1 °F    
Average Humidity 35    
Maximum Humidity 62    
Minimum Humidity 18    
Precipitation  
Precipitation 0.00 in - - ()
Sea Level Pressure  
Sea Level Pressure 30.47 in    
Wind  
Wind Speed 10 mph (North)    
Max Wind Speed 15 mph    
Max Gust Speed 25 mph    
Visibility 10 miles    
Events      
Averages and records for this station are not official NWS values.
T = Trace of Precipitation, MM = Missing Value Source: NWS Daily Summary

Daily Weather History Graph

Daily Weather History Graph

Search for Another Location

Airport or City:

Astronomy

Nov. 16, 2019 Rise Set
Actual Time 6:39 AM EST 4:23 PM EST
Civil Twilight 6:08 AM EST 4:54 PM EST
Nautical Twilight 5:34 AM EST 5:28 PM EST
Astronomical Twilight 5:01 AM EST 6:01 PM EST
Moon 7:51 PM EST (11/16) 10:32 AM EST (11/16)
Length of Visible Light 10h 45m
Length of Day
9h 44m
Waning Gibbous, 82% of the Moon is Illuminated
Nov 16
Waning Gibbous
Nov 19
Last Quarter
Nov 26
New
Dec 4
First Quarter
Dec 12
Full

Hourly Weather History & Observations

Time (EST) Temp. Windchill Dew Point Humidity Pressure Visibility Wind Dir Wind Speed Gust Speed Precip Events Conditions
12:52 AM 36.0 °F 27.5 °F 19.0 °F 50% 30.24 in 10.0 mi North 12.7 mph 23.0 mph N/A   Mostly Cloudy
1:52 AM 33.1 °F 24.4 °F 16.0 °F 50% 30.30 in 10.0 mi North 11.5 mph 20.7 mph N/A   Scattered Clouds
2:52 AM 30.0 °F 20.0 °F 5.0 °F 35% 30.33 in 10.0 mi NNW 12.7 mph - N/A   Clear
3:52 AM 27.0 °F 15.2 °F -2.0 °F 29% 30.38 in 10.0 mi North 15.0 mph 25.3 mph N/A   Clear
4:52 AM 25.0 °F 14.2 °F -0.9 °F 33% 30.42 in 10.0 mi North 11.5 mph - N/A   Clear
5:52 AM 23.0 °F 13.9 °F -0.0 °F 37% 30.45 in 10.0 mi NNW 8.1 mph - N/A   Clear
6:52 AM 23.0 °F 13.1 °F -0.9 °F 35% 30.48 in 10.0 mi NNW 9.2 mph - N/A   Clear
7:52 AM 25.0 °F 15.5 °F -2.9 °F 30% 30.52 in 10.0 mi North 9.2 mph - N/A   Clear
8:52 AM 27.0 °F 19.5 °F -2.9 °F 27% 30.53 in 10.0 mi North 6.9 mph - N/A   Clear
9:52 AM 30.0 °F 22.4 °F -2.9 °F 24% 30.53 in 10.0 mi North 8.1 mph 17.3 mph N/A   Clear
10:52 AM 33.1 °F 26.9 °F -2.0 °F 22% 30.52 in 10.0 mi North 6.9 mph - N/A   Clear
12:52 PM 36.0 °F 26.7 °F -2.9 °F 19% 30.50 in 10.0 mi NNE 15.0 mph - N/A   Unknown
1:52 PM 36.0 °F 27.5 °F -4.0 °F 18% 30.48 in 10.0 mi North 12.7 mph - N/A   Clear
2:52 PM 35.1 °F 28.6 °F -4.0 °F 19% 30.48 in 10.0 mi North 8.1 mph - N/A   Clear
3:52 PM 32.0 °F 24.2 °F -5.1 °F 20% 30.48 in 10.0 mi North 9.2 mph - N/A   Clear
4:52 PM 28.9 °F 23.9 °F -4.0 °F 24% 30.51 in 10.0 mi NE 4.6 mph - N/A   Clear
5:52 PM 26.1 °F 19.4 °F -0.9 °F 31% 30.52 in 10.0 mi North 5.8 mph - N/A   Clear
6:52 PM 26.1 °F 21.9 °F -2.0 °F 30% 30.53 in 10.0 mi North 3.5 mph - N/A   Clear
7:52 PM 24.1 °F - 1.9 °F 38% 30.54 in 10.0 mi Calm Calm - N/A   Clear
8:52 PM 18.0 °F 12.7 °F 6.1 °F 60% 30.55 in 10.0 mi WNW 3.5 mph - N/A   Clear
9:52 PM 18.0 °F 12.7 °F 6.1 °F 60% 30.55 in 10.0 mi WNW 3.5 mph - N/A   Clear
10:52 PM 17.1 °F 11.7 °F 5.0 °F 59% 30.55 in 10.0 mi NNW 3.5 mph - N/A   Clear
11:52 PM 17.1 °F - 6.1 °F 62% 30.52 in 10.0 mi Calm Calm - N/A   Clear